Flag for U.S.A. Weather past 2 weeks in Seattle, Washington, U.S.A.

Now
85 °F

Passing clouds.


Feels Like: 84 °F
Forecast: 63 / 79 °F
Wind: 6 mph from Northwest

Location: Seattle Boeing Field

Current Time: Aug 27, 2014 at 4:02:17 PM

Latest Report: Aug 27, 2014 at 2:53 PM


Visibility: 10 mi

Pressure: 30.01 "Hg

Humidity: 39%

Dew point: 57 °F

Location of SeattleLocation

Historic Weather in Seattle — Graph

°F

Seattle temperature yesterday

Maximum temperature yesterday: 88 °F (at 3:53 PM)
Minimum temperature yesterday: 65 °F (at 3:53 AM)
Average temperature yesterday: 76 °F

Past Weeks' High & Low Weather Summary

 TemperatureHumidityPressure
High88 °F (Aug 26, 3:53 PM)87% (Aug 13, 1:53 AM)30.15 "Hg (Aug 13, 1:53 AM)
Low57 °F (Aug 21, 5:53 AM)23% (Aug 26, 5:53 PM)29.77 "Hg (Aug 19, 5:53 PM)
Average70 °F62%29.99 "Hg
* Reported Aug 12 2:53 PM — Aug 27 2:53 PM, Seattle, Weather by CustomWeather, © 2014

Note: Actual official high and low records may vary slightly from our data, if they occured in-between our weather recording intervals... More about our weather records

Advertising

Seattle weather history for previous 24 hours

 ConditionsComfort  
Time TempWeatherWind HumidityBarometerVisibility
2:53 PM
Aug 27
85 °FPassing clouds.6 mph39%30.01 "Hg10 mi
1:53 PM82 °FPassing clouds.3 mph44%30.01 "Hg10 mi
12:53 PM82 °FSunny.No wind44%30.03 "Hg10 mi
11:53 AM80 °FSunny.No wind47%30.03 "Hg10 mi
10:53 AM77 °FSunny.3 mph52%30.04 "Hg10 mi
9:53 AM75 °FSunny.3 mph55%30.04 "Hg10 mi
8:53 AM72 °FSunny.No wind61%30.03 "Hg10 mi
7:53 AM69 °FSunny.No wind66%30.03 "Hg10 mi
6:53 AM67 °FClear.No wind68%30.02 "Hg10 mi
5:53 AM67 °FClear.No wind68%30.01 "Hg10 mi
4:53 AM68 °FClear.No wind65%30.01 "Hg10 mi
3:53 AM70 °FClear.No wind61%30.00 "Hg10 mi
2:53 AM71 °FClear.No wind59%30.00 "Hg10 mi
1:53 AM71 °FClear.No wind59%29.99 "Hg10 mi
12:53 AM70 °FClear.No wind59%29.99 "Hg10 mi
11:53 PM
Aug 26
72 °FClear.3 mph53%29.98 "Hg10 mi
10:53 PM76 °FClear.No wind45%29.97 "Hg10 mi
9:53 PM79 °FClear.No wind39%29.97 "Hg10 mi
8:53 PM80 °FSunny.No wind36%29.96 "Hg10 mi
7:53 PM84 °FSunny.3 mph35%29.95 "Hg10 mi
6:53 PM86 °FSunny.6 mph30%29.95 "Hg10 mi
5:53 PM88 °FSunny.6 mph23%29.95 "Hg10 mi
4:53 PM88 °FSunny.5 mph24%29.97 "Hg10 mi
Weather by CustomWeather, © 2014

See weather overviewHow to use our weather pages